Weather History for Midland Airpark, TX

Change the Weather History Date:

Sunday, November 11, 2012

  Actual Average (KMAF) Record (KMAF)
Temperature  
Mean Temperature 55 °F 55 °F  
Max Temperature 67 °F 68 °F 83 °F (1964)
Min Temperature 42 °F 41 °F 16 °F (1950)
Degree Days  
Heating Degree Days 10 11  
Month to date heating degree days 95  
Since 1 July heating degree days 204  
Growing Degree Days 5 (Base 50)    
Moisture  
Dew Point 22 °F    
Average Humidity 31    
Maximum Humidity 75    
Minimum Humidity 12    
Precipitation  
Precipitation 0.00 in 0.02 in 0.10 in (1991)
Month to date precipitation 0.28  
Year to date precipitation 13.59  
Snow  
Snow 0.00 in - - ()
Month to date snowfall  
Since 1 July snowfall  
Since 1 September snowfall  
Snow Depth -    
Sea Level Pressure  
Sea Level Pressure 30.05 in    
Wind  
Wind Speed 11 mph (NW)    
Max Wind Speed 25 mph    
Max Gust Speed 38 mph    
Visibility 10 miles    
Events      
T = Trace of Precipitation, MM = Missing Value Source: NWS Daily Summary

Daily Weather History Graph

Daily Weather History Graph

Search for Another Location

Airport:

Trip Planner

Search our weather history database for the weather conditions in past years. The results will help you decide how hot, cold, wet, or windy it might be!

Date:

Astronomy

Nov. 11, 2012 Rise Set
Actual Time 7:14 AM CST 5:50 PM CST
Civil Twilight 6:48 AM CST 6:16 PM CST
Nautical Twilight 6:18 AM CST 6:45 PM CST
Astronomical Twilight 5:50 AM CST 7:14 PM CST
Moon 4:37 AM CST (11/11) 4:10 PM CST (11/11)
Length of Visible Light 11h 27m
Length of Day
10h 36m
Waning Crescent, 7% of the Moon is Illuminated
Nov 11
Waning Crescent
Nov 13
New
Nov 20
First Quarter
Nov 28
Full
Dec 6
Last Quarter

Hourly Weather History & Observations

Time (CST) Temp. Windchill Dew Point Humidity Pressure Visibility Wind Dir Wind Speed Gust Speed Precip Events Conditions
12:15 AM 65.8 °F - 57.2 °F 74% 29.80 in 10.0 mi WSW 6.9 mph - N/A   Scattered Clouds
12:35 AM 65.3 °F - 57.2 °F 75% 29.81 in 10.0 mi SW 9.2 mph - N/A   Clear
12:55 AM 66.2 °F - 57.2 °F 73% 29.80 in 10.0 mi SSW 16.1 mph 20.7 mph N/A   Scattered Clouds
1:15 AM 67.3 °F - 57.0 °F 70% 29.80 in 10.0 mi SSW 15.0 mph 24.2 mph N/A   Clear
1:35 AM 67.5 °F - 56.8 °F 69% 29.80 in 10.0 mi SSW 12.7 mph 21.9 mph N/A   Clear
1:55 AM 66.9 °F - 56.8 °F 70% 29.81 in 10.0 mi SW 11.5 mph - N/A   Clear
2:15 AM 66.0 °F - 56.8 °F 72% 29.82 in 10.0 mi SW 8.1 mph - N/A   Clear
2:35 AM 65.1 °F - 53.4 °F 66% 29.82 in 10.0 mi WSW 10.4 mph - N/A   Clear
2:55 AM 64.8 °F - 49.1 °F 57% 29.83 in 10.0 mi West 9.2 mph - N/A   Clear
3:15 AM 63.0 °F - 50.7 °F 64% 29.84 in 10.0 mi West 6.9 mph - N/A   Clear
3:35 AM 61.0 °F - 52.5 °F 74% 29.83 in 10.0 mi West 8.1 mph - N/A   Clear
3:55 AM 58.5 °F - 41.2 °F 53% 29.86 in 10.0 mi NNW 17.3 mph - N/A   Clear
4:15 AM 55.8 °F - 30.9 °F 39% 29.87 in 10.0 mi NNW 12.7 mph - N/A   Clear
4:35 AM 54.5 °F - 28.4 °F 37% 29.89 in 10.0 mi NNW 11.5 mph 17.3 mph N/A   Clear
4:55 AM 53.4 °F - 26.1 °F 35% 29.89 in 10.0 mi NNW 11.5 mph 16.1 mph N/A   Clear
5:35 AM 52.2 °F - 24.8 °F 35% 29.93 in 10.0 mi NNW 9.2 mph - N/A   Clear
5:55 AM 51.4 °F - 24.4 °F 35% 29.94 in 10.0 mi NNW 8.1 mph - N/A   Clear
6:15 AM 50.9 °F - 23.9 °F 35% 29.95 in 10.0 mi NNW 6.9 mph - N/A   Clear
6:35 AM 49.8 °F - 24.3 °F 37% 29.96 in 10.0 mi NW 6.9 mph - N/A   Clear
6:55 AM 49.1 °F - 24.6 °F 38% 29.98 in 10.0 mi NW 5.8 mph - N/A   Clear
7:35 AM 48.2 °F - 24.8 °F 40% 30.01 in 10.0 mi WNW 4.6 mph - N/A   Clear
8:15 AM 49.5 °F - 23.5 °F 36% 30.03 in 10.0 mi WNW 5.8 mph - N/A   Clear
8:35 AM 50.0 °F - 23.2 °F 35% 30.04 in 10.0 mi NW 6.9 mph - N/A   Clear
8:55 AM 51.1 °F - 23.5 °F 34% 30.05 in 10.0 mi NW 6.9 mph - N/A   Clear
9:15 AM 53.1 °F - 22.8 °F 31% 30.06 in 10.0 mi NNW 8.1 mph - N/A   Clear
9:35 AM 54.7 °F - 23.2 °F 29% 30.07 in 10.0 mi NW 8.1 mph - N/A   Clear
9:55 AM 55.8 °F - 22.6 °F 28% 30.07 in 10.0 mi NW 12.7 mph 17.3 mph N/A   Clear
10:15 AM 56.5 °F - 23.0 °F 27% 30.08 in 10.0 mi NW 10.4 mph 18.4 mph N/A   Clear
10:35 AM 57.2 °F - 23.4 °F 27% 30.08 in 10.0 mi NNW 12.7 mph 17.3 mph N/A   Clear
10:55 AM 57.7 °F - 23.9 °F 27% 30.08 in 10.0 mi NW 11.5 mph 19.6 mph N/A   Clear
11:15 AM 58.5 °F - 23.9 °F 26% 30.08 in 10.0 mi NW 10.4 mph 20.7 mph N/A   Clear
11:35 AM 59.5 °F - 24.4 °F 26% 30.08 in 10.0 mi NW 18.4 mph 24.2 mph N/A   Clear
11:55 AM 60.6 °F - 24.8 °F 25% 30.07 in 10.0 mi WNW 12.7 mph 23.0 mph N/A   Clear
12:15 PM 61.7 °F - 25.0 °F 25% 30.07 in 10.0 mi NW 12.7 mph 24.2 mph N/A   Clear
12:35 PM 61.9 °F - 25.0 °F 25% 30.06 in 10.0 mi NW 18.4 mph 23.0 mph N/A   Clear
12:55 PM 62.6 °F - 24.6 °F 24% 30.06 in 10.0 mi WNW 16.1 mph 23.0 mph N/A   Clear
1:15 PM 63.3 °F - 24.1 °F 22% 30.05 in 10.0 mi WNW 20.7 mph 26.5 mph N/A   Clear
1:35 PM 63.7 °F - 23.5 °F 22% 30.04 in 10.0 mi WNW 18.4 mph 24.2 mph N/A   Clear
1:55 PM 63.5 °F - 22.1 °F 21% 30.04 in 10.0 mi WNW 25.3 mph 31.1 mph N/A   Clear
2:15 PM 63.1 °F - 20.3 °F 19% 30.05 in 10.0 mi WNW 25.3 mph 31.1 mph N/A   Clear
2:35 PM 63.1 °F - 18.0 °F 18% 30.05 in 10.0 mi WNW 23.0 mph 38.0 mph N/A   Clear
2:55 PM 63.1 °F - 13.8 °F 15% 30.06 in 10.0 mi WNW 17.3 mph 26.5 mph N/A   Clear
3:15 PM 62.8 °F - 10.8 °F 13% 30.07 in 10.0 mi NW 18.4 mph 25.3 mph N/A   Clear
3:35 PM 62.8 °F - 9.1 °F 12% 30.08 in 10.0 mi WNW 19.6 mph 24.2 mph N/A   Clear
3:55 PM 62.2 °F - 8.6 °F 12% 30.09 in 10.0 mi WNW 18.4 mph 24.2 mph N/A   Clear
4:15 PM 61.3 °F - 7.9 °F 12% 30.09 in 10.0 mi WNW 20.7 mph 25.3 mph N/A   Clear
4:35 PM 61.0 °F - 8.2 °F 12% 30.10 in 10.0 mi NW 18.4 mph 24.2 mph N/A   Clear
4:55 PM 60.4 °F - 8.1 °F 13% 30.11 in 10.0 mi NW 11.5 mph 18.4 mph N/A   Clear
5:15 PM 59.9 °F - 7.7 °F 13% 30.12 in 10.0 mi WNW 13.8 mph 17.3 mph N/A   Clear
5:35 PM 59.0 °F - 6.6 °F 12% 30.13 in 10.0 mi NW 10.4 mph - N/A   Clear
5:55 PM 57.2 °F - 7.3 °F 14% 30.14 in 10.0 mi NW 6.9 mph - N/A   Clear
6:15 PM 55.2 °F - 7.5 °F 15% 30.15 in 10.0 mi NW 5.8 mph - N/A   Clear
6:35 PM 53.6 °F - 7.9 °F 16% 30.17 in 10.0 mi NNW 5.8 mph - N/A   Clear
6:55 PM 52.2 °F - 8.6 °F 17% 30.19 in 10.0 mi NNW 6.9 mph - N/A   Clear
7:15 PM 51.3 °F - 5.7 °F 16% 30.20 in 10.0 mi NNW 9.2 mph - N/A   Clear
7:35 PM 50.9 °F - 3.4 °F 14% 30.21 in 10.0 mi NNW 8.1 mph - N/A   Clear
7:55 PM 50.2 °F - 3.0 °F 15% 30.22 in 10.0 mi North 4.6 mph - N/A   Clear
8:15 PM 49.1 °F - 3.2 °F 15% 30.23 in 10.0 mi NNW 4.6 mph - N/A   Clear
8:35 PM 48.2 °F - 3.6 °F 16% 30.24 in 10.0 mi NNW 5.8 mph - N/A   Clear
8:55 PM 46.8 °F - 4.8 °F 18% 30.25 in 10.0 mi NW 5.8 mph - N/A   Clear
9:15 PM 45.5 °F 41.8 °F 5.7 °F 20% 30.26 in 10.0 mi NW 6.9 mph - N/A   Clear
9:35 PM 45.5 °F 43.2 °F 5.5 °F 19% 30.27 in 10.0 mi NNW 4.6 mph - N/A   Clear
9:55 PM 46.0 °F 43.9 °F 4.6 °F 18% 30.28 in 10.0 mi NNW 4.6 mph - N/A   Clear
10:15 PM 45.7 °F 41.5 °F 5.2 °F 19% 30.28 in 10.0 mi NW 8.1 mph - N/A   Clear
10:35 PM 46.0 °F 43.1 °F 4.6 °F 18% 30.30 in 10.0 mi NW 5.8 mph - N/A   Clear
10:55 PM 44.6 °F 41.4 °F 5.9 °F 20% 30.30 in 10.0 mi WNW 5.8 mph - N/A   Clear
11:15 PM 43.0 °F 39.5 °F 7.3 °F 23% 30.31 in 10.0 mi WNW 5.8 mph - N/A   Clear
11:35 PM 42.6 °F 38.4 °F 7.3 °F 23% 30.32 in 10.0 mi WNW 6.9 mph - N/A   Clear